Theta_e
343 343 342 340 337 333 332 332 333 338 344 346 347 347 348 348 348 348 348 348 348 348 348 348 347 346 346 345 344 344 344 344 345 345 345 345 345 344 344 344 344 343 343 344 344 343 343 342 340 340 339 337 336 336 336 337 340 342 344 345 345 346 346 346 346 345 341 339 338 340 343 343 343 343 343 343 343 342 341 341 341 340 340 338 337
342 342 341 340 338 334 332 331 332 334 339 342 344 345 346 346 347 347 347 347 347 347 348 348 348 347 347 346 347 346 345 345 346 347 347 346 345 345 344 344 344 343 343 343 343 343 343 343 342 342 342 340 339 337 336 337 340 343 344 344 345 346 345 346 346 344 340 336 336 338 339 341 342 342 342 343 343 342 341 341 340 339 337 335 334
342 341 341 340 339 337 334 332 332 333 335 337 338 340 340 341 343 345 346 347 347 347 347 346 347 347 347 348 348 348 348 347 348 348 348 347 346 345 345 344 344 343 343 343 343 343 343 343 343 343 343 343 342 340 339 339 339 341 342 343 345 346 346 347 347 345 342 337 335 335 336 336 336 336 338 339 341 340 340 339 338 337 335 334 333
342 342 342 341 340 339 337 336 335 333 333 334 335 336 336 336 338 341 343 344 345 346 346 346 345 345 347 348 349 349 349 349 349 349 348 347 346 346 345 344 343 344 343 343 343 343 343 343 343 343 344 344 344 343 342 342 341 341 342 343 345 346 347 347 347 346 344 340 337 335 335 334 334 335 337 338 339 339 338 337 337 335 335 335 334
342 342 343 343 343 342 341 339 338 336 334 333 333 333 334 334 334 336 338 339 341 342 343 343 343 343 344 346 348 349 349 350 349 348 348 348 347 347 346 343 342 342 343 343 343 343 343 343 343 343 344 344 345 345 344 343 343 343 343 344 345 346 345 345 345 345 343 341 339 337 337 338 338 339 341 342 342 341 340 339 338 337 335 336 336
342 343 343 344 344 344 343 342 341 338 336 335 334 333 333 333 332 333 334 335 336 338 339 340 341 342 343 344 345 346 348 349 349 348 348 347 347 347 345 344 342 340 340 341 342 342 343 343 343 343 343 343 343 344 345 345 344 344 344 345 345 345 344 344 344 344 343 341 341 340 341 343 343 343 344 345 345 344 343 341 340 338 336 336 337
341 343 344 344 345 345 345 344 343 341 339 337 336 336 335 334 333 333 333 333 334 335 336 337 338 340 342 344 344 345 346 347 348 348 348 347 347 346 346 345 344 343 342 340 341 342 343 343 343 343 343 343 342 343 344 345 345 345 345 345 345 345 345 345 345 345 345 345 345 346 346 346 346 345 345 345 344 344 344 342 341 339 338 337 336
339 340 342 343 345 345 345 345 345 344 344 341 339 338 337 336 335 335 335 334 334 335 335 335 336 337 339 341 344 345 345 346 346 347 348 347 347 347 347 347 347 346 346 344 343 343 343 343 343 342 342 342 343 343 344 345 345 345 345 345 345 345 346 347 347 347 348 348 348 348 348 347 346 345 345 344 344 343 342 341 340 338 337 336 334
339 339 340 342 344 344 344 345 346 346 347 346 344 342 339 337 336 336 336 336 335 334 332 332 332 333 334 337 342 344 344 344 344 345 346 347 347 347 347 347 347 347 347 347 346 345 345 344 344 343 343 343 342 342 342 343 343 343 344 344 345 345 346 348 349 349 349 349 349 348 347 346 345 345 345 344 344 343 340 339 338 336 336 335 333
340 339 339 340 341 341 341 343 345 346 346 348 348 347 345 343 340 339 338 337 336 333 330 329 330 331 331 334 338 342 343 343 343 343 344 345 345 346 346 346 347 347 347 347 347 346 346 346 346 346 346 345 345 344 343 343 341 341 341 342 344 345 346 347 348 349 349 348 348 347 346 346 346 345 344 343 343 342 339 338 338 337 338 338 336
341 340 340 340 341 341 340 342 343 344 346 347 349 349 349 348 347 345 343 341 338 335 333 333 334 333 333 334 337 340 343 344 343 343 344 344 344 344 345 345 345 346 346 346 346 346 346 346 346 346 346 346 346 346 345 345 344 342 341 339 340 342 344 345 346 347 348 348 348 347 346 345 344 343 342 342 341 340 339 338 339 339 340 341 339
343 343 343 342 341 340 341 341 342 345 348 349 350 350 350 350 350 350 348 345 343 343 342 342 340 339 338 338 340 341 341 341 341 343 344 345 345 345 345 345 345 345 345 345 345 345 345 345 345 345 345 346 346 346 346 346 346 345 343 341 339 339 340 341 342 343 344 345 345 344 342 341 340 338 339 340 340 339 339 339 340 340 341 341 342
348 347 346 345 344 344 345 345 345 347 348 350 351 352 351 352 352 352 351 348 347 348 350 350 348 346 346 346 346 345 342 341 341 342 343 344 345 345 345 345 345 345 345 345 345 345 344 344 344 344 345 345 346 346 346 346 346 346 345 344 343 342 341 340 340 341 341 342 341 340 338 339 338 338 338 339 340 341 341 342 342 342 342 342 344
349 349 348 348 348 348 348 348 347 347 347 349 352 353 352 353 353 353 352 351 350 351 352 353 353 353 352 352 351 349 347 346 345 344 343 343 344 344 345 345 345 345 346 346 346 346 345 344 343 343 343 344 345 346 346 347 346 346 346 345 345 345 344 344 343 343 343 343 343 342 342 342 343 342 343 343 344 344 345 345 345 344 345 346 347
348 348 348 349 349 348 348 348 347 348 348 349 350 351 351 351 350 350 351 351 351 352 352 353 354 354 354 353 352 351 350 348 348 347 346 346 345 345 345 345 345 345 345 345 346 347 346 345 344 343 343 343 344 345 346 346 347 347 347 347 346 346 346 346 345 346 346 346 346 346 346 346 346 346 346 346 346 347 347 347 347 347 348 348 348
347 348 348 348 348 348 348 348 348 348 349 349 349 349 349 349 348 348 349 349 349 350 351 352 352 353 352 352 351 351 350 349 348 348 348 347 347 347 347 346 345 344 344 344 345 345 345 345 344 344 344 344 343 343 344 345 346 347 347 347 347 347 346 346 346 346 347 347 347 347 347 347 347 347 348 348 348 348 348 348 348 348 348 349 349
342 343 344 344 345 346 347 348 348 347 347 347 347 347 347 347 347 347 348 348 348 349 350 350 350 350 350 350 351 350 350 349 348 348 349 349 348 349 348 346 345 344 345 345 344 345 344 344 343 343 343 343 344 344 344 345 345 346 346 346 346 346 346 347 347 347 347 348 348 348 348 348 349 349 349 349 349 349 349 349 349 349 350 351 352
338 339 340 341 341 342 342 342 341 341 342 343 344 343 344 344 344 344 345 346 347 347 348 348 348 349 349 349 349 349 349 350 349 349 350 349 349 349 349 347 346 346 347 347 346 346 346 345 344 344 344 344 344 345 345 346 346 346 346 347 346 346 347 347 348 348 348 348 349 349 350 350 351 351 351 351 351 350 350 350 350 351 351 352 353
339 339 339 339 338 338 338 338 338 339 340 342 342 341 340 340 341 341 341 342 343 344 345 345 345 346 346 346 347 347 348 348 349 350 350 350 350 349 349 348 348 349 349 349 349 349 348 348 347 347 347 347 346 347 348 348 349 349 349 349 349 349 349 348 349 349 349 349 350 350 350 351 351 351 351 351 351 351 351 351 352 352 353 353 353
337 338 337 335 333 333 334 334 334 334 335 338 338 338 338 338 338 338 337 338 339 340 340 341 342 342 342 343 343 344 345 345 346 347 348 348 348 348 348 349 349 350 350 350 350 350 349 349 349 348 348 348 348 349 349 349 350 350 350 351 351 351 350 350 350 349 349 350 350 350 350 350 350 350 351 352 352 352 352 352 352 352 353 354 353
332 331 329 326 325 328 330 331 331 331 332 335 338 339 338 336 334 333 333 334 335 336 336 336 338 338 339 339 340 340 341 341 342 343 344 345 345 346 347 348 348 348 349 349 349 349 349 349 349 349 349 350 349 350 350 350 350 350 350 351 350 350 350 350 350 350 350 350 350 350 351 350 350 350 351 352 352 352 352 352 352 352 353 353 353
326 325 324 324 326 329 330 330 331 333 334 335 335 336 335 335 334 333 333 332 329 327 326 327 328 329 331 332 333 334 334 334 335 336 337 338 339 340 342 343 344 345 345 345 346 346 347 348 348 348 349 349 350 350 350 350 350 350 350 350 350 350 350 350 350 350 349 349 349 350 351 351 351 352 351 352 352 352 352 352 352 352 352 352 353
321 323 326 328 329 330 330 330 330 331 332 332 332 331 331 331 330 327 326 324 322 321 321 321 322 322 324 326 327 328 329 329 329 329 330 330 331 332 333 334 335 337 338 338 339 340 341 342 343 344 344 344 345 345 346 347 347 348 348 348 348 348 349 349 349 348 348 349 349 349 350 350 351 352 352 352 353 352 352 352 352 352 352 352 352
322 324 328 329 329 329 329 329 329 329 328 329 328 328 327 326 324 321 318 317 316 318 319 319 320 321 322 324 325 326 327 329 328 328 327 327 327 327 328 329 329 330 331 332 332 333 333 334 335 336 336 337 338 339 341 343 344 345 345 346 346 347 348 348 348 348 348 348 348 348 349 349 350 351 351 351 352 352 352 352 352 352 353 352 352
323 324 325 326 327 328 328 328 327 327 327 326 326 326 325 324 323 321 319 316 315 315 315 316 317 318 319 321 322 324 325 326 326 326 326 326 326 326 327 326 326 326 327 327 327 327 327 328 328 329 329 330 331 334 336 338 340 341 343 344 345 345 345 346 346 345 345 346 346 347 348 348 348 349 349 349 350 351 351 351 352 352 352 352 352
323 323 322 322 323 324 324 324 324 323 323 321 320 320 320 319 319 318 317 315 315 314 314 314 314 314 316 318 319 321 322 323 324 324 325 325 325 325 324 324 324 324 324 324 324 324 324 324 325 325 325 326 326 328 329 331 333 336 337 339 341 341 342 342 343 343 343 344 345 345 346 347 347 347 347 348 348 349 349 349 349 350 350 351 351
323 323 323 322 322 321 321 320 319 319 318 317 317 316 316 316 316 315 314 314 314 313 313 313 313 313 314 315 317 318 319 320 321 322 322 322 322 322 322 321 321 321 321 321 321 321 321 322 322 322 322 323 324 325 327 329 331 333 334 336 337 338 338 338 339 340 341 342 343 343 343 344 344 345 346 346 347 347 347 347 348 348 348 349 349
320 323 323 323 323 323 322 321 320 319 319 319 318 318 317 317 316 316 315 315 314 314 314 313 313 313 313 314 315 315 316 316 317 317 317 317 317 317 317 317 317 317 317 317 317 318 318 319 319 320 320 320 321 323 324 326 328 329 330 332 333 335 335 336 338 339 340 340 340 340 340 341 341 342 342 343 344 344 345 345 346 346 347 347 348
317 321 323 324 323 323 323 322 322 321 321 321 320 319 319 318 318 317 317 316 316 315 315 315 315 314 314 314 314 314 314 314 314 313 313 313 313 313 313 312 312 312 312 312 313 313 314 315 315 315 316 317 317 318 319 320 321 322 323 325 326 327 329 331 332 334 337 339 339 338 338 339 341 341 340 340 341 342 342 343 344 344 345 346 346
319 321 323 324 324 324 323 323 323 322 322 322 321 320 320 319 319 318 318 318 317 317 316 316 316 315 315 315 314 314 314 313 313 313 312 312 312 312 312 312 311 311 311 311 311 311 311 311 311 311 312 312 313 314 315 316 316 317 318 319 320 321 322 323 325 327 330 333 335 335 336 338 339 339 338 338 340 341 342 342 342 343 344 346 347
321 322 323 323 323 323 323 323 323 322 322 322 321 321 320 320 319 319 319 318 318 317 316 316 316 315 315 314 314 313 313 313 313 313 313 313 312 312 312 312 312 312 311 311 311 311 311 310 310 310 310 310 310 311 311 312 313 314 314 315 317 318 319 319 320 322 323 326 327 329 331 333 334 334 334 335 337 338 339 340 340 341 343 345 346
321 322 323 323 323 322 322 322 322 322 322 321 321 320 320 319 319 319 318 317 317 317 316 316 315 314 314 313 313 313 313 313 313 313 313 313 312 312 312 312 311 311 311 311 311 311 311 311 311 311 310 310 310 310 310 310 310 311 311 312 313 314 315 316 318 319 319 320 321 322 324 325 326 327 328 328 330 332 333 334 335 336 337 338 339
320 321 322 322 322 322 322 322 321 321 321 320 320 320 319 319 319 318 317 316 316 316 316 315 314 314 313 313 313 313 313 313 313 313 313 312 312 312 312 311 311 311 311 311 311 311 311 311 311 311 311 311 311 310 310 310 310 310 310 310 310 311 312 313 314 315 316 317 318 318 319 320 320 321 321 322 323 324 325 325 326 327 327 327 328
319 319 320 320 320 320 320 320 319 319 319 319 319 319 318 318 318 318 317 317 316 315 315 314 313 313 313 313 312 312 312 312 312 312 312 312 312 312 311 312 312 312 312 312 311 311 311 311 311 311 311 311 311 311 311 311 311 311 310 310 310 310 310 311 311 312 313 314 314 315 316 316 317 318 318 319 319 320 320 321 321 321 322 322 323
317 317 318 317 317 317 317 317 317 317 317 317 317 317 317 317 317 317 317 316 316 315 314 314 313 312 312 312 312 312 312 312 312 312 312 312 312 311 312 313 314 314 313 313 312 311 311 310 311 310 310 310 311 311 311 311 311 311 311 311 311 311 311 311 311 311 311 311 312 312 313 314 314 315 315 316 317 317 318 318 319 319 320 320 321
314 314 314 315 315 315 315 315 315 315 315 315 315 315 315 315 315 315 315 314 314 313 313 313 313 312 311 311 311 311 311 311 311 310 310 310 310 311 312 313 313 313 312 312 312 311 311 310 310 310 310 310 310 310 310 311 311 312 312 312 312 312 312 312 312 312 311 311 311 311 312 312 313 313 314 314 314 315 315 316 316 317 318 318 319
311 311 312 312 312 312 312 312 312 312 312 312 313 313 313 313 313 312 312 313 312 312 312 312 312 311 311 311 310 310 309 309 309 309 309 310 310 311 312 312 312 311 311 311 310 310 310 309 310 310 309 309 310 309 309 310 310 311 311 311 311 311 311 311 312 312 312 312 312 312 312 312 312 312 313 313 313 314 314 315 315 315 316 317 317
309 310 310 311 311 311 311 310 310 310 310 311 311 312 312 312 311 311 311 311 310 310 310 310 310 310 310 310 308 308 308 308 309 310 311 311 311 311 311 311 311 310 310 310 309 309 308 308 308 308 308 308 309 309 308 309 308 309 309 309 309 309 310 310 311 311 311 311 311 312 312 312 313 313 313 313 313 313 314 314 314 315 315 316 316
307 308 308 308 308 309 309 308 308 308 308 309 310 310 310 310 310 309 309 309 309 309 309 309 308 309 309 308 307 307 308 309 310 311 310 310 310 310 309 309 310 309 309 308 308 308 307 307 307 307 307 307 307 307 307 307 307 307 307 307 308 308 308 309 309 310 310 310 310 310 311 311 311 312 312 312 312 312 313 313 314 314 315 315 316
305 304 304 304 305 305 306 306 305 304 306 307 309 309 309 309 308 308 308 307 307 308 308 307 307 308 307 306 305 305 307 308 308 308 308 309 308 308 308 308 308 308 308 307 307 306 306 306 306 306 306 306 306 306 306 306 306 306 306 306 306 306 307 307 307 308 308 308 308 309 309 309 310 310 311 311 311 312 312 312 313 313 314 314 315
301 301 301 302 302 302 302 302 301 302 305 307 308 308 308 308 307 306 306 306 306 306 306 305 305 306 305 304 303 303 304 306 307 306 306 307 307 306 306 306 306 306 306 305 305 305 305 305 305 305 305 305 305 305 305 305 305 305 305 305 305 305 306 306 306 306 306 307 307 307 308 308 309 309 310 310 310 311 311 311 312 312 313 313 314
299 299 300 300 300 300 300 301 302 304 306 307 307 307 307 306 305 305 305 305 305 305 304 304 304 304 303 302 301 301 303 305 306 305 305 305 305 305 304 304 304 304 304 304 304 304 304 303 303 304 304 304 304 304 304 304 304 305 304 305 305 305 305 305 304 305 305 306 306 306 306 307 308 309 309 310 310 310 310 311 311 311 312 313 313
299 299 299 299 300 301 302 304 305 306 306 306 306 305 304 304 304 304 304 304 303 303 303 303 303 303 302 302 301 300 302 303 304 304 304 304 304 304 304 303 303 303 303 303 303 302 302 302 302 302 303 303 303 304 304 304 304 304 304 304 304 304 304 304 303 304 305 305 305 305 306 306 307 308 308 309 309 309 310 310 311 311 311 311 312
299 299 299 301 303 304 304 304 305 305 304 304 304 304 303 303 303 303 303 302 302 302 302 302 302 302 301 301 301 301 301 302 302 302 302 302 302 302 303 303 303 303 303 302 302 301 301 301 302 302 302 302 302 302 303 303 303 303 303 303 303 303 303 302 303 304 305 305 305 305 305 306 307 307 308 308 309 309 309 309 310 310 310 310 311
299 299 299 301 303 303 303 303 303 303 302 302 302 302 301 301 302 302 302 301 301 301 301 301 301 300 300 300 300 300 301 301 301 301 301 301 302 302 303 303 302 302 302 301 301 300 300 300 301 301 301 301 301 301 301 302 302 302 302 302 302 301 301 301 302 304 304 304 305 305 305 306 306 307 307 308 308 308 309 309 309 309 309 309 309
299 299 299 299 300 301 301 301 300 300 299 299 299 299 299 300 301 301 300 300 300 300 300 300 299 299 299 299 299 299 300 300 300 300 301 301 302 302 302 302 301 301 300 300 299 299 299 299 299 299 299 300 300 300 300 300 301 301 301 301 300 300 300 300 302 303 303 304 304 305 305 306 306 307 307 308 308 308 308 308 308 308 308 308 308
298 298 298 298 298 298 298 298 298 298 298 298 298 298 298 299 300 300 299 299 299 299 299 298 298 298 298 298 298 299 299 299 299 300 300 300 300 301 301 300 300 299 299 298 298 298 298 298 298 298 298 298 299 299 299 299 299 299 299 299 299 299 299 300 301 302 302 303 303 304 305 305 306 306 306 306 306 305 305 306 306 307 307 306 307
298 298 298 298 298 298 298 298 298 297 297 297 297 297 298 298 299 299 299 298 298 298 298 297 297 298 298 298 298 298 298 298 298 298 299 299 300 300 299 299 299 298 297 297 297 297 297 297 297 297 297 297 297 297 298 298 297 297 297 297 298 299 299 300 300 300 301 301 302 303 303 304 304 304 304 304 303 302 302 302 303 304 305 306 307
298 298 298 298 298 298 298 297 297 297 297 297 297 297 297 297 297 298 298 297 297 297 297 297 297 297 297 297 297 297 297 297 297 297 298 298 298 298 298 297 297 296 296 296 296 296 296 297 297 297 297 297 297 296 296 296 296 296 296 296 296 298 298 298 298 298 298 298 299 299 300 300 300 301 301 300 299 299 299 299 300 302 304 305 306
299 299 299 299 298 298 297 297 297 297 297 297 297 297 297 297 297 297 297 296 296 297 297 297 297 297 297 296 296 296 296 296 296 296 297 297 296 296 296 296 295 295 295 295 295 295 296 296 297 297 297 297 297 296 296 296 295 295 295 295 295 295 295 295 295 295 295 295 296 296 297 297 297 297 297 296 296 296 297 298 299 301 303 305 306
299 299 299 299 298 298 297 297 297 297 297 297 297 296 296 296 296 296 296 296 296 296 296 296 296 296 296 296 296 296 296 295 295 295 295 295 295 295 295 295 294 294 294 295 295 295 295 295 295 296 296 296 296 296 295 295 294 294 294 294 293 293 293 293 293 293 293 294 294 294 294 294 294 294 294 294 295 295 296 298 299 301 303 304 305
Wind_Speed
18 17 17 17 17 17 17 17 17 16 16 15 14 13 12 12 10 10 10 9 9 8 8 7 7 8 8 9 8 8 8 7 7 7 7 7 6 6 7 7 7 8 8 9 10 10 11 10 10 10 11 12 12 12 13 13 14 13 13 13 13 13 13 14 16 20 20 19 17 16 14 13 13 11 12 13 14 14 15 15 16 17 17 18 20
17 17 17 18 18 17 17 18 18 17 17 16 15 14 13 13 12 11 10 10 9 9 8 8 8 8 8 9 8 8 8 7 7 6 7 7 7 7 7 7 7 7 7 8 8 9 10 10 10 10 10 11 11 11 12 13 13 13 13 13 13 13 13 13 15 18 20 19 18 16 15 14 14 13 13 14 15 15 15 14 14 15 16 17 18
17 16 16 16 17 17 17 17 18 19 19 18 17 15 14 13 13 12 11 10 10 9 9 9 9 9 9 9 8 8 7 7 7 7 7 7 7 7 7 7 7 7 7 7 7 8 9 9 9 9 9 10 10 10 11 12 12 13 14 13 13 13 13 13 14 16 19 19 18 17 16 16 16 15 15 15 15 15 15 15 14 15 15 15 15
18 17 16 15 15 15 16 16 17 18 19 20 19 17 15 14 14 13 12 11 11 10 10 9 9 10 10 9 9 8 8 7 7 8 7 7 7 7 7 8 8 8 8 8 8 8 8 8 8 8 9 10 10 10 10 10 11 12 12 13 12 13 13 13 14 16 18 19 17 16 15 15 15 14 13 13 13 13 13 13 13 12 12 12 13
21 20 18 17 16 15 15 15 17 18 19 19 19 18 17 16 15 14 13 13 12 12 11 11 10 10 10 10 10 9 8 8 7 7 7 7 6 6 7 8 8 9 9 9 8 8 8 8 8 8 9 10 10 10 10 10 11 11 12 12 12 13 14 14 15 15 17 18 18 15 14 13 12 11 11 12 12 12 11 11 11 11 11 11 11
24 23 22 20 18 17 16 16 16 17 18 18 19 19 18 18 17 16 15 15 14 14 13 13 12 11 11 11 11 10 9 8 7 7 6 6 6 6 6 6 7 8 9 9 9 9 9 9 9 9 9 10 10 10 10 10 10 11 11 11 12 13 14 14 14 15 16 16 16 15 13 12 12 11 11 12 14 14 13 13 12 11 12 13 12
26 25 24 23 22 20 19 17 16 17 18 18 19 19 19 19 19 19 18 17 16 16 15 15 14 13 13 12 12 11 11 10 8 7 6 6 6 5 5 5 6 6 7 8 9 10 10 9 9 9 9 10 10 10 10 10 10 11 11 11 11 12 13 13 13 13 14 14 14 14 13 14 14 14 13 14 15 15 16 16 15 13 14 16 16
28 26 25 24 23 22 21 20 18 17 17 18 19 20 20 20 20 20 19 19 18 18 17 17 16 15 15 14 13 13 12 12 11 9 8 7 7 6 6 6 6 6 6 7 8 9 10 10 10 10 9 10 10 10 10 11 11 12 12 11 12 12 13 13 13 13 13 13 14 14 15 16 15 15 15 15 15 16 17 18 18 18 18 18 19
29 27 26 25 25 24 22 22 20 19 18 18 19 20 20 20 20 20 20 20 20 19 18 18 18 17 16 16 15 14 14 14 13 12 10 9 9 9 9 8 8 8 8 7 7 8 8 9 10 9 9 9 10 10 11 11 12 13 12 12 12 12 12 13 13 13 13 14 15 16 17 18 17 16 16 16 16 17 18 19 20 20 20 20 20
29 29 28 28 28 27 25 24 22 21 20 19 19 19 19 19 19 20 20 20 21 20 20 19 19 18 17 16 16 15 15 15 14 13 13 12 11 11 11 11 10 10 10 9 9 8 8 9 9 9 9 9 9 10 10 11 12 13 13 13 13 13 13 13 13 14 15 16 17 17 19 20 19 18 19 18 18 18 18 19 20 21 22 23 23
28 29 29 29 30 31 29 27 25 22 21 21 20 19 19 19 19 19 19 19 19 19 20 19 18 17 16 16 16 16 16 16 16 15 15 14 13 13 13 13 12 12 12 12 11 11 11 11 11 10 10 9 9 10 10 10 10 11 12 13 14 14 15 15 15 16 16 17 18 19 21 22 22 21 21 20 19 19 19 20 21 22 23 25 26
28 28 28 28 30 32 31 29 27 23 21 21 21 21 20 19 19 19 19 19 18 19 19 19 17 16 16 16 16 17 18 18 17 17 16 15 14 14 14 14 14 14 14 14 13 13 13 13 13 14 13 11 11 11 11 10 10 11 12 12 13 14 15 16 17 18 18 19 20 22 23 24 24 23 22 21 21 21 22 22 23 24 25 26 27
28 27 26 26 27 29 29 27 26 23 21 21 22 22 22 21 20 20 20 20 19 19 18 18 17 16 16 15 16 17 18 18 17 17 17 16 15 15 15 15 15 15 15 15 15 15 15 15 16 16 16 15 14 14 14 13 12 12 13 13 13 14 14 15 17 17 18 19 21 23 23 22 24 24 21 21 22 23 24 24 25 26 27 28 29
28 27 26 26 24 24 24 24 23 23 23 23 21 20 21 22 20 17 17 18 18 18 17 17 17 17 16 15 16 17 17 17 17 17 16 16 16 16 16 15 16 16 16 16 16 16 17 17 17 17 17 17 17 17 17 16 15 15 15 15 15 15 15 16 16 17 17 18 21 22 21 21 22 23 21 21 22 24 25 26 27 28 29 30 31
27 26 25 24 22 21 21 21 20 20 20 20 19 18 19 19 17 13 12 11 11 13 16 17 18 18 17 16 17 18 18 18 18 17 17 16 16 16 17 17 17 18 18 18 18 18 18 19 19 19 19 19 19 19 19 19 19 19 18 18 18 18 18 18 17 18 19 20 22 23 23 23 23 24 24 24 25 26 26 28 29 30 32 33 34
21 21 21 21 20 17 16 16 16 17 16 15 15 14 14 12 11 11 11 11 11 12 15 16 17 18 18 18 19 20 20 20 20 19 19 18 18 18 18 18 19 19 19 20 20 20 20 20 20 21 21 21 21 21 22 22 22 22 22 22 22 21 22 21 21 21 22 23 24 25 26 27 27 27 27 27 28 29 29 30 32 32 33 34 35
17 16 16 17 16 15 15 15 16 15 14 12 10 9 9 9 9 10 11 13 13 13 13 13 14 15 16 17 19 19 20 21 21 21 21 20 20 20 20 20 20 20 20 20 21 21 21 22 22 22 22 23 23 23 23 24 25 25 25 25 25 25 25 25 25 25 25 26 27 28 29 30 30 31 30 30 30 30 30 32 32 31 31 32 34
17 16 16 15 14 13 12 11 10 10 9 7 6 4 3 4 4 5 6 9 10 10 10 10 10 10 11 13 14 15 16 18 19 19 19 19 19 19 19 19 19 19 19 20 21 21 21 22 22 23 23 23 24 23 24 24 24 25 26 27 27 27 27 28 28 29 29 29 30 31 32 31 31 31 31 30 30 29 30 31 30 28 28 30 31
18 16 16 16 15 14 13 12 12 12 12 12 11 9 8 7 6 5 4 4 5 6 6 6 6 6 8 9 9 10 10 11 12 13 13 13 13 14 15 15 15 16 17 17 18 18 19 20 21 22 23 24 24 24 24 24 24 25 25 26 27 28 28 29 30 31 32 33 33 33 32 31 30 30 29 28 28 28 28 28 27 27 27 28 29
18 17 16 16 16 16 16 15 15 15 15 14 11 9 9 9 9 9 7 5 4 4 4 3 3 4 5 6 6 7 7 7 8 9 9 10 10 10 10 11 12 14 15 15 15 15 16 17 19 20 21 23 24 24 25 25 26 26 26 26 27 28 29 31 32 33 34 34 34 34 33 31 29 28 28 28 27 26 26 27 27 26 27 28 29
16 15 13 12 12 13 13 13 13 13 13 13 12 11 11 10 9 8 7 7 7 5 4 4 4 3 4 5 5 5 6 6 6 7 8 8 9 8 8 8 9 12 14 14 15 15 15 15 17 19 19 20 22 23 24 25 25 26 26 26 27 28 30 31 32 32 33 33 33 31 30 28 27 27 27 26 25 24 24 25 25 25 26 28 29
13 12 11 11 12 13 13 13 13 13 12 11 11 11 10 8 7 6 6 6 7 6 5 5 5 4 3 3 2 2 2 2 3 3 3 3 4 4 4 6 7 9 11 12 13 13 13 14 15 17 18 19 20 21 22 23 23 23 24 24 26 27 27 28 28 29 29 29 28 27 25 24 24 24 24 25 24 23 23 23 24 25 25 26 27
12 11 12 13 14 14 13 12 12 11 10 8 8 10 10 8 7 6 6 6 6 5 5 5 5 4 4 3 3 1 1 1 2 3 3 3 3 4 4 4 6 7 8 9 10 10 10 11 12 14 15 16 17 17 18 18 19 20 21 22 23 23 23 24 25 25 25 25 26 25 23 22 20 19 20 22 23 23 24 25 25 25 24 25 25
11 12 13 13 12 12 11 11 10 9 9 7 6 7 8 7 6 6 6 6 6 5 5 5 4 3 3 3 3 1 0 1 2 3 4 5 5 5 4 4 5 6 7 8 8 8 9 9 10 11 12 12 13 13 13 14 16 17 19 20 20 20 20 21 21 22 22 23 23 23 21 20 19 20 21 23 24 25 25 25 25 24 24 25 26
11 11 12 11 10 10 9 9 8 7 6 5 4 4 4 4 3 3 2 3 4 4 4 4 3 3 3 2 2 2 2 2 3 4 5 5 5 5 5 5 5 5 5 6 7 8 9 10 10 10 11 11 11 12 13 14 16 17 18 19 19 16 16 16 16 18 19 18 18 18 18 17 17 19 22 24 25 26 25 24 24 25 25 26 26
10 10 10 10 10 9 8 7 7 5 4 3 3 3 3 3 3 3 3 2 2 2 3 3 2 2 2 3 3 3 3 4 4 5 5 5 6 6 6 6 6 6 6 7 7 8 9 9 9 10 10 11 11 11 12 14 16 17 18 19 17 14 12 12 12 13 14 14 14 14 15 15 15 17 19 21 22 22 23 23 23 25 26 27 28
9 9 9 9 9 7 6 6 5 5 4 4 4 4 4 4 3 3 3 3 3 2 2 2 2 1 1 1 2 2 3 4 5 6 7 8 8 8 8 8 8 9 8 8 8 8 9 9 9 10 10 11 11 12 13 14 15 16 16 16 16 15 15 14 14 14 15 15 16 16 16 17 17 17 16 16 16 18 19 19 20 21 23 25 28
9 10 9 9 8 7 6 5 4 4 4 4 4 4 4 3 3 3 3 4 4 4 3 2 1 1 0 1 2 3 4 5 7 8 9 10 11 11 12 12 12 12 12 12 12 12 12 12 12 11 11 11 11 11 12 13 13 14 15 15 15 16 15 14 14 14 16 17 18 18 18 18 17 16 16 15 16 16 16 16 18 19 20 21 23
10 11 11 10 9 8 7 6 5 4 4 4 3 4 4 3 3 3 3 2 2 2 2 1 1 0 1 2 4 5 6 8 9 10 11 12 12 13 14 15 15 16 16 16 16 17 17 16 16 15 14 13 13 13 13 13 13 13 14 14 16 16 16 16 15 14 14 16 17 17 18 18 17 17 18 18 18 16 15 16 17 18 19 19 21
11 12 12 12 11 10 9 8 6 5 5 4 3 3 3 3 3 3 3 2 2 2 2 2 2 2 3 4 5 6 7 9 10 11 12 13 13 14 15 16 17 17 18 18 19 19 20 20 20 19 18 17 16 16 15 15 15 15 14 14 15 16 16 17 17 16 16 17 17 18 19 19 20 20 21 21 20 19 17 17 17 18 18 17 19
11 13 13 13 12 11 10 9 7 6 5 4 2 2 1 1 1 1 2 2 3 3 3 3 4 4 4 5 6 6 7 8 10 11 12 13 14 15 15 16 17 17 18 19 19 19 19 20 19 19 19 19 18 18 17 17 16 16 15 15 15 16 16 17 18 18 18 19 19 19 20 21 22 24 24 24 25 24 24 23 22 21 20 18 18
10 12 13 12 12 11 10 9 8 6 5 4 4 3 2 2 1 1 1 2 2 3 3 3 3 4 4 5 6 7 7 8 10 11 12 13 14 15 16 17 17 17 17 17 18 18 18 18 18 18 18 18 18 18 18 18 18 17 17 16 16 16 17 17 18 18 19 20 20 21 21 21 23 25 26 26 27 28 29 29 28 27 27 25 24
11 12 12 12 12 11 10 9 8 7 6 5 5 5 4 3 2 2 1 2 2 3 4 4 4 4 5 5 6 6 7 8 9 10 11 13 13 14 15 16 16 16 16 16 16 16 16 16 16 16 16 16 17 17 18 18 19 19 19 19 18 18 18 18 18 19 19 20 21 22 22 23 24 26 27 27 27 28 29 30 30 30 30 30 30
11 12 13 13 13 12 12 11 10 10 9 8 7 5 4 3 3 2 2 2 2 2 3 5 6 6 6 6 7 7 7 8 8 9 11 12 13 13 14 14 14 14 14 13 14 14 14 14 14 15 15 15 15 16 16 17 18 18 19 20 20 20 20 20 20 20 20 20 21 22 22 23 25 26 26 26 27 28 29 29 30 30 31 31 31
13 14 14 13 13 13 13 12 12 11 11 12 10 7 5 4 3 2 2 2 1 1 1 2 5 6 7 7 7 7 8 8 9 9 10 11 12 13 12 11 9 9 8 8 9 11 13 13 13 14 14 14 14 14 15 15 16 16 17 18 19 20 21 21 22 23 23 23 23 23 23 23 25 26 27 27 27 28 28 29 30 31 31 32 32
13 13 13 13 13 13 12 13 13 13 12 11 8 5 4 3 3 3 2 2 2 1 1 1 2 5 6 7 7 7 8 8 8 8 9 10 11 10 8 6 6 6 6 6 7 8 10 11 11 11 12 13 14 14 14 14 14 14 15 16 17 18 19 20 21 22 23 23 24 25 25 25 25 26 27 27 28 28 29 30 30 31 31 32 33
11 11 11 12 11 10 9 11 11 10 9 7 5 4 3 3 3 3 2 2 2 2 1 1 2 2 4 5 7 7 7 7 8 7 8 9 8 6 4 4 5 6 6 6 7 7 7 8 8 9 10 11 12 13 13 13 13 13 14 15 17 18 18 19 20 20 21 21 23 24 25 26 26 26 26 27 28 29 30 31 31 31 31 31 32
10 10 11 10 8 5 4 5 6 5 5 4 4 4 4 4 3 3 3 2 2 2 1 1 1 1 3 5 7 8 7 7 6 5 5 6 5 4 3 4 5 5 5 6 6 7 7 8 9 9 10 10 10 12 12 13 13 13 14 16 16 17 18 18 18 18 20 21 22 23 24 24 25 25 26 27 28 29 30 31 32 32 32 32 31
8 9 10 9 7 5 4 4 5 5 4 4 4 4 4 4 3 3 3 2 2 1 1 1 1 1 2 4 6 6 5 4 3 3 3 4 4 4 4 4 5 5 5 6 7 7 8 8 8 9 9 9 9 10 11 12 13 14 15 15 15 16 17 16 15 16 19 22 23 24 24 24 24 25 26 27 28 29 30 30 31 32 32 32 32
6 8 9 8 8 6 5 4 5 6 5 4 4 4 4 4 3 2 2 1 1 1 1 1 1 1 2 5 7 6 4 3 3 4 4 4 4 5 5 5 5 5 6 7 7 8 9 8 8 9 9 9 9 10 11 11 12 12 13 14 14 15 15 14 13 14 19 22 23 24 25 26 26 26 27 28 29 29 30 30 30 31 32 32 33
7 8 8 7 7 6 5 5 6 6 5 4 5 5 5 4 3 2 1 1 1 1 1 1 1 2 5 8 10 8 5 3 3 4 4 4 5 5 5 6 6 6 7 7 8 8 9 9 9 10 10 10 10 11 11 11 11 11 11 13 14 14 14 13 12 15 20 23 24 25 25 26 27 27 28 28 29 29 30 31 31 31 32 33 33
7 7 7 7 7 7 7 6 6 5 5 5 5 5 4 3 2 1 1 1 1 1 1 2 2 2 5 9 10 8 5 4 4 4 5 5 5 6 6 6 7 7 8 8 9 9 9 10 11 11 11 11 11 12 12 12 11 11 12 13 14 14 14 12 12 16 22 25 25 26 27 26 27 27 28 28 29 30 30 31 31 31 32 33 33
7 7 7 7 7 7 7 6 5 5 5 4 4 4 3 2 1 1 1 1 1 1 1 2 2 2 4 8 9 6 4 4 4 5 5 5 6 6 7 7 7 7 8 8 8 9 10 11 11 12 12 12 12 12 12 12 13 12 13 14 15 14 14 14 14 19 23 26 26 27 28 28 28 28 28 29 29 30 31 32 32 32 32 33 33
7 6 6 6 6 6 6 5 5 5 4 4 4 3 2 2 1 0 0 0 1 1 1 2 3 2 3 5 6 5 4 4 4 5 6 7 7 7 7 7 8 8 8 8 9 10 11 11 11 12 12 12 12 12 12 12 12 12 13 14 14 13 14 14 17 21 24 26 27 28 29 29 29 29 30 30 31 32 33 33 33 33 33 33 33
7 6 5 5 5 6 6 5 5 4 4 4 3 2 1 1 1 1 0 0 1 1 1 2 3 3 3 4 4 4 4 4 5 6 6 7 7 7 8 10 10 10 10 10 10 12 13 13 13 13 14 13 13 13 13 13 13 12 12 12 13 13 13 14 18 23 25 26 27 28 29 29 29 30 30 31 32 33 33 33 33 33 33 33 33
7 6 6 6 6 6 6 5 5 4 4 3 2 1 1 1 1 1 0 0 0 1 1 2 3 3 4 5 5 5 5 5 5 5 6 7 7 8 10 12 15 16 16 15 14 14 16 16 16 16 16 15 14 13 14 15 14 13 12 12 13 14 14 17 21 24 25 26 28 29 29 29 30 30 30 32 32 33 34 33 33 32 31 31 30
7 7 7 7 7 6 6 6 5 4 4 3 3 2 2 1 1 1 1 2 2 2 2 3 4 4 5 5 5 5 5 5 5 6 7 8 8 9 11 14 17 20 20 18 16 16 17 18 18 19 18 17 15 15 15 15 14 13 14 16 17 18 19 21 24 25 26 26 28 28 28 29 29 30 31 31 32 33 33 33 32 31 31 29 26
7 7 7 7 6 6 6 5 5 4 4 4 4 4 4 3 2 1 2 4 5 5 5 5 5 5 5 5 5 5 5 6 6 7 7 8 9 11 14 17 20 22 22 20 17 16 15 17 18 19 19 19 17 15 14 14 13 12 14 17 20 21 22 23 24 25 25 26 27 27 27 27 28 29 29 30 31 31 31 31 31 30 29 28 26
7 7 7 6 6 5 5 4 4 4 5 5 6 6 6 6 5 4 4 6 8 8 7 6 6 6 6 6 6 6 6 6 6 7 7 8 9 12 15 18 21 21 20 18 16 16 16 17 18 18 19 19 17 15 13 13 12 12 11 13 17 20 21 21 22 23 23 24 25 25 25 25 26 26 27 27 28 29 29 29 29 27 26 26 26
7 7 6 5 5 4 4 4 5 5 5 6 6 7 7 7 7 7 7 9 8 7 6 6 7 7 7 7 7 7 6 6 7 8 8 9 10 12 15 17 18 17 16 16 16 17 18 18 18 17 17 18 17 16 14 13 12 12 13 14 16 18 18 18 19 19 20 22 23 23 23 23 24 24 24 25 26 26 26 26 26 25 24 24 24
6 5 4 4 4 4 4 4 4 5 6 6 7 8 8 8 8 9 9 8 7 6 6 8 9 9 8 7 7 7 7 7 8 8 9 10 11 13 14 14 14 15 16 17 17 18 18 17 16 16 15 14 13 13 12 10 10 11 13 14 15 15 16 17 18 19 20 22 23 23 23 23 23 23 23 23 24 25 25 24 24 24 24 24 23
Wind_Direction
230 233 230 228 226 224 223 221 219 220 221 220 218 216 217 218 216 213 209 205 204 207 211 214 219 222 222 220 220 221 220 223 231 237 242 248 251 257 261 263 262 259 255 256 259 261 261 261 262 264 267 269 270 271 271 273 275 278 283 287 290 294 297 299 300 302 306 308 310 312 313 312 311 309 306 306 306 305 307 309 310 309 308 308 307
229 233 233 228 226 226 225 223 221 220 222 224 223 220 220 221 221 219 217 214 212 213 216 220 224 227 228 228 226 228 227 226 234 244 250 256 259 264 266 267 268 268 265 263 263 263 263 264 265 267 268 269 270 271 271 271 270 273 278 282 286 289 291 295 299 301 303 305 307 308 308 307 306 307 308 308 308 309 310 312 312 311 310 309 308
228 231 233 230 228 227 226 225 223 223 223 225 225 225 225 224 223 223 223 223 222 222 224 226 228 229 230 231 231 230 229 230 238 250 256 260 264 269 273 272 271 272 273 272 269 267 265 265 268 270 270 270 271 272 272 272 270 271 275 280 285 288 289 292 298 301 302 302 304 306 307 306 306 308 309 308 310 314 316 316 314 314 315 315 314
230 230 231 231 229 229 228 226 225 224 225 227 226 226 227 227 226 223 223 226 226 226 228 230 232 232 230 230 230 230 231 234 243 250 253 256 264 272 276 276 272 270 271 273 271 270 269 268 269 270 270 272 274 275 276 278 278 278 279 282 286 288 289 291 296 300 302 302 304 306 307 308 310 315 317 317 318 321 321 320 319 319 319 320 321
230 232 233 233 231 230 229 229 228 226 226 229 229 228 227 227 226 225 225 226 226 226 228 231 235 236 233 232 232 232 233 236 240 244 248 255 263 272 279 280 277 274 272 272 272 270 270 272 272 272 273 276 278 280 283 285 285 286 287 289 290 290 289 291 294 297 299 302 305 307 311 314 317 323 327 326 328 330 327 324 326 322 315 317 323
232 233 236 237 236 234 232 231 231 229 228 230 232 233 233 231 230 228 227 227 228 227 228 230 233 235 236 235 235 234 233 233 234 235 240 250 258 267 276 281 282 280 278 276 275 272 271 272 274 276 279 283 285 286 286 287 287 288 290 291 292 291 291 291 292 293 295 299 303 308 314 318 320 324 327 327 328 331 329 325 325 321 315 315 321
234 237 240 242 242 240 238 234 233 233 232 231 233 235 236 236 234 233 232 231 231 232 233 233 233 234 235 235 234 232 229 229 231 232 236 244 251 257 267 278 286 289 288 283 280 278 277 277 277 277 281 284 287 288 287 286 284 284 285 288 289 289 289 290 289 289 292 295 299 306 311 313 316 321 324 324 325 327 328 327 325 322 317 316 319
233 239 244 246 246 246 245 242 238 235 234 232 233 234 235 237 237 237 236 235 234 234 234 235 235 235 236 235 233 230 228 228 229 230 235 242 249 255 261 269 280 288 293 292 287 283 282 283 283 284 286 287 288 288 286 285 283 282 282 284 286 285 286 286 285 284 287 289 293 300 304 306 310 315 319 322 326 328 328 327 326 324 320 316 316
234 238 243 244 244 244 245 245 243 239 237 235 233 233 233 234 236 238 238 238 237 236 235 236 236 236 237 237 235 232 232 230 228 229 232 237 244 252 256 261 269 276 280 283 283 283 284 286 287 288 292 292 291 289 287 287 285 285 286 285 284 284 283 281 280 280 282 285 289 295 299 300 305 312 314 317 323 325 323 323 323 324 322 316 313
233 235 238 241 242 241 241 243 243 242 242 241 238 235 233 232 233 236 237 239 239 238 238 238 238 238 238 237 238 238 238 236 233 231 232 233 238 244 249 254 260 265 267 268 268 269 273 277 281 284 287 289 291 292 291 290 287 285 285 284 282 281 281 279 277 278 280 283 286 291 295 296 299 306 308 310 316 318 318 318 318 318 318 314 312
231 232 235 237 238 239 240 242 243 244 249 250 244 238 236 234 234 235 237 237 237 235 236 237 237 238 237 237 239 241 242 240 236 233 232 234 237 242 246 251 256 261 266 268 268 268 270 271 273 274 274 276 281 284 284 285 286 284 281 279 276 275 276 276 275 276 279 281 283 288 292 293 295 300 303 307 310 310 310 312 312 312 313 312 312
225 228 233 235 237 238 240 242 242 245 252 254 247 240 237 237 236 236 236 234 232 231 232 234 235 236 236 236 239 242 243 242 239 236 235 237 242 247 251 255 260 265 270 275 277 278 278 278 277 276 273 268 268 271 272 273 275 276 274 271 269 268 269 272 275 277 280 282 284 286 291 294 296 298 302 305 305 304 305 307 308 308 308 308 309
220 224 229 234 237 238 239 239 239 244 252 255 248 241 239 238 237 237 236 234 230 230 233 234 236 237 238 240 243 244 244 245 244 242 240 241 246 252 257 260 263 267 271 276 279 280 282 282 281 281 280 276 272 270 269 267 263 262 262 263 264 264 264 266 270 274 279 282 284 286 289 294 296 297 301 302 301 302 304 305 306 305 305 306 307
222 224 227 230 232 234 234 236 240 246 252 252 245 239 237 235 232 231 233 233 232 233 235 236 239 242 243 245 247 247 247 248 248 247 245 245 249 255 260 263 265 267 268 272 275 277 280 281 282 283 283 282 280 277 276 273 268 264 262 262 263 264 264 265 267 270 273 276 279 283 286 289 291 293 296 297 297 299 301 302 303 302 302 304 305
223 225 225 225 226 230 233 236 237 239 240 237 233 232 232 229 223 215 214 219 226 233 238 240 243 246 246 246 248 250 251 251 251 251 249 249 252 257 262 265 267 269 269 270 272 274 276 279 280 281 281 280 278 276 276 276 275 273 271 270 270 269 268 269 270 273 274 275 277 281 284 286 287 289 291 293 293 294 295 295 296 297 298 300 301
192 200 204 203 205 211 213 212 210 210 211 214 220 227 231 229 227 224 224 227 231 236 240 243 246 248 248 249 251 253 254 253 253 253 253 253 255 259 263 267 269 271 272 273 274 276 278 279 280 280 281 280 277 274 273 274 275 276 276 276 276 275 274 274 273 273 275 277 279 281 284 285 287 287 288 290 291 292 292 291 292 295 298 300 300
138 148 159 167 174 178 179 182 184 187 194 203 214 227 234 236 237 235 234 231 227 230 237 243 247 250 251 251 251 251 252 253 253 254 256 257 259 261 265 268 271 274 276 276 276 279 281 283 284 284 283 283 281 278 275 273 274 275 276 278 278 278 278 280 279 278 278 279 281 284 286 287 288 288 288 288 289 290 290 289 291 296 298 297 298
115 120 127 133 139 145 153 161 163 164 169 169 167 169 174 192 207 213 220 222 220 224 233 239 244 249 251 252 252 251 251 252 251 253 256 259 261 264 265 268 271 274 277 278 278 279 281 283 285 285 285 284 284 283 281 279 278 277 278 280 281 281 282 283 284 285 284 285 285 286 287 288 288 287 287 287 288 288 288 289 292 294 292 291 293
119 121 122 120 117 116 114 117 121 124 125 125 124 120 115 116 119 122 138 173 190 201 211 216 221 231 236 237 240 244 249 251 251 250 253 257 260 262 264 265 269 272 275 277 278 278 279 281 282 282 282 283 283 283 283 283 283 282 283 284 285 285 285 285 285 287 288 288 288 289 289 289 289 289 288 288 287 287 287 288 290 289 287 288 290
121 121 119 115 111 107 103 106 112 115 116 119 120 116 109 105 102 101 103 103 111 134 155 164 181 201 211 212 216 226 236 245 249 250 253 257 258 261 263 265 269 272 273 273 274 275 275 276 278 279 280 281 282 282 283 283 283 283 284 285 285 286 285 285 285 286 287 287 288 289 289 289 290 290 291 292 291 289 289 288 286 285 284 285 287
121 122 122 119 113 107 106 108 110 113 116 120 122 116 105 99 99 100 99 93 89 93 101 108 123 153 189 208 221 235 242 247 251 251 253 257 257 257 259 263 269 274 275 274 273 272 272 272 274 276 277 277 278 279 279 280 280 281 281 280 280 281 281 282 283 284 285 287 288 289 289 290 291 290 290 290 290 290 290 288 286 284 282 282 284
121 122 122 121 116 113 114 114 113 112 111 114 118 115 108 104 104 100 93 89 89 93 102 105 108 122 152 178 195 221 236 247 263 264 258 259 263 266 272 276 278 278 278 277 276 275 276 277 277 278 278 279 280 281 282 282 283 283 282 280 279 279 280 281 282 284 286 288 290 290 291 292 292 291 289 288 288 288 286 285 284 283 281 280 281
120 123 125 124 121 120 121 121 120 117 113 112 113 111 107 105 102 94 86 84 89 99 105 102 98 100 106 103 98 90 56 2 324 328 345 345 338 335 326 309 297 290 287 287 286 286 288 288 287 286 286 286 286 285 285 285 286 286 286 285 285 286 286 286 287 289 290 292 293 294 294 293 292 292 291 290 289 288 286 285 285 285 283 282 281
126 133 136 135 134 134 132 131 131 129 126 127 124 118 116 114 112 107 97 93 101 110 108 103 101 108 115 115 117 118 47 12 351 347 348 348 349 347 339 323 309 302 299 300 303 304 303 301 300 297 294 292 291 288 284 281 281 281 282 283 284 287 287 287 289 290 292 295 297 297 297 296 295 294 294 293 292 291 290 289 288 287 285 284 283
142 144 145 146 150 152 151 149 149 145 143 146 145 140 140 141 145 147 134 114 114 114 113 116 126 143 153 162 181 206 246 291 315 329 335 339 342 342 341 338 330 323 319 317 318 319 318 316 313 308 302 298 294 290 286 281 279 278 277 276 278 282 285 284 285 288 292 295 298 299 299 298 296 295 294 294 294 294 292 291 288 287 286 284 284
156 155 155 155 156 159 160 161 160 158 155 152 148 148 152 159 166 169 167 158 137 126 127 129 136 152 167 185 209 231 251 271 288 300 309 317 322 326 329 330 327 328 329 328 325 322 318 316 313 310 308 305 300 294 290 286 284 281 280 278 276 275 277 277 278 281 284 284 286 290 292 292 293 294 295 296 296 294 292 292 291 290 289 287 285
168 166 165 163 160 160 161 157 153 149 142 131 127 125 124 126 133 138 145 149 142 139 147 156 170 182 187 199 225 253 267 275 284 288 291 296 299 301 303 305 306 310 311 312 313 313 313 314 314 314 314 312 310 303 297 293 289 284 282 279 274 271 272 275 275 274 275 275 276 280 285 289 294 299 301 301 299 296 296 296 295 295 295 292 289
176 175 175 174 172 171 169 160 150 141 130 120 115 110 104 103 103 109 123 135 139 143 149 157 169 183 253 297 305 306 303 300 299 297 297 297 298 299 300 301 303 306 308 311 314 317 319 321 321 319 315 310 306 301 296 294 291 288 287 284 279 276 276 276 275 275 277 281 284 286 291 297 301 302 303 303 303 304 303 301 300 298 297 295 293
170 175 178 179 179 179 178 173 164 150 133 119 108 101 97 89 83 81 86 101 121 138 141 138 138 48 344 326 323 321 317 313 310 307 306 307 307 308 308 308 309 311 312 314 317 318 319 319 318 318 316 311 309 306 303 301 301 300 300 297 293 291 290 287 287 286 286 290 294 296 299 303 302 300 301 304 305 307 307 308 310 308 304 301 299
159 167 172 174 174 176 176 174 168 158 145 130 102 84 80 70 60 52 43 36 25 12 5 355 349 348 339 328 324 320 315 313 312 311 311 311 311 312 312 312 313 314 314 315 317 317 317 317 317 318 317 317 316 315 313 311 310 309 310 309 306 306 305 302 301 299 295 293 293 294 296 299 301 301 302 301 300 300 302 306 310 309 306 305 304
162 165 168 170 172 174 176 176 173 169 164 153 127 98 85 74 61 34 9 350 337 328 325 327 330 328 324 319 314 309 307 306 305 305 307 309 309 311 311 311 312 313 314 316 318 319 320 320 320 319 319 318 318 317 316 315 314 313 312 312 312 311 311 309 308 307 305 302 301 299 298 299 300 299 299 298 299 301 303 303 303 301 299 298 299
177 174 174 175 176 178 183 183 182 184 186 183 180 180 183 190 198 227 289 300 304 305 305 306 302 296 294 294 293 293 294 296 297 299 302 304 307 309 310 312 313 315 317 320 321 322 323 324 324 323 323 322 321 320 319 318 318 317 316 315 315 314 313 313 312 312 311 311 312 311 310 308 306 304 303 304 304 303 303 302 302 301 300 298 295
192 190 188 187 188 190 193 193 194 199 202 201 193 181 172 172 179 194 239 276 293 297 295 295 290 282 279 277 277 281 285 288 292 297 299 302 305 307 309 311 312 313 316 318 318 319 319 320 322 322 324 324 323 323 322 321 320 319 318 317 317 317 315 315 315 315 314 314 314 315 315 314 312 310 311 313 312 310 309 308 308 307 306 304 302
195 194 194 195 197 201 205 206 207 208 211 214 211 200 192 195 191 187 203 240 268 275 276 280 280 279 281 279 276 278 282 285 289 294 297 300 302 304 307 310 311 311 313 314 315 316 316 317 319 319 320 322 322 322 321 320 319 319 319 319 319 319 318 317 317 316 315 315 314 314 314 314 313 312 313 314 314 313 313 313 313 313 312 311 310
202 201 202 203 205 208 211 213 212 211 213 218 218 215 211 209 202 193 193 202 211 221 250 266 267 269 274 278 280 284 288 292 294 296 296 297 299 305 313 320 324 327 329 329 326 323 321 322 323 323 322 323 323 322 320 317 314 314 315 316 316 317 318 318 317 317 317 316 315 314 314 314 313 312 313 314 314 313 312 312 313 314 313 313 314
211 211 211 211 212 213 216 217 217 215 214 213 209 202 198 196 190 185 186 190 199 204 183 220 267 274 277 279 284 290 294 297 299 298 295 295 299 308 320 330 334 335 338 338 335 331 329 328 328 328 328 328 327 326 324 320 316 314 313 313 313 314 315 315 314 315 315 316 315 315 314 314 314 313 313 314 314 314 314 313 313 313 313 313 313
209 210 211 212 214 217 218 219 218 214 206 197 183 172 175 177 172 171 169 169 176 190 203 220 254 283 291 288 285 287 293 301 307 307 304 302 306 314 325 327 325 326 327 328 330 332 333 332 330 329 329 328 327 326 324 323 322 319 317 317 316 314 313 313 312 311 312 314 314 313 313 313 313 313 313 314 314 315 316 315 314 314 313 313 313
209 211 212 214 213 207 197 202 206 202 190 181 174 171 172 171 163 159 159 160 161 166 182 215 224 250 280 280 278 280 291 307 316 317 313 311 313 317 317 318 321 321 320 322 325 326 327 326 324 324 325 325 324 323 323 324 324 322 321 321 320 318 317 316 313 312 314 316 316 315 314 314 314 313 312 313 314 314 314 314 315 315 314 314 314
206 212 216 216 212 199 178 182 195 195 184 175 171 170 173 173 161 148 148 154 162 171 183 212 239 263 278 278 279 284 295 310 308 296 293 298 301 303 306 309 312 313 314 316 319 320 320 319 318 319 320 319 319 320 321 321 322 322 321 322 321 321 321 319 315 315 319 321 319 318 318 317 316 314 313 313 314 313 312 312 313 313 313 313 313
197 209 215 216 214 212 207 202 200 194 181 166 158 162 173 174 159 147 158 162 158 179 195 205 240 267 279 286 292 300 305 299 284 281 285 290 295 299 301 301 301 304 307 310 312 314 313 313 313 314 314 313 314 316 317 318 318 317 317 319 319 319 320 318 314 317 323 324 320 319 319 318 317 316 315 314 314 313 312 312 312 312 312 311 311
189 196 200 200 201 203 202 198 193 183 166 150 148 159 172 173 157 151 175 183 179 205 226 241 263 270 277 286 294 302 304 296 288 283 283 286 288 291 294 296 296 296 299 303 307 309 309 307 308 308 308 308 308 309 311 313 313 310 310 313 314 315 316 313 310 317 323 323 320 319 319 317 316 315 314 314 314 314 313 313 312 312 312 311 311
165 165 166 166 166 167 170 171 166 154 142 138 144 158 168 163 151 151 168 178 198 224 243 270 288 283 283 291 298 300 292 283 285 286 287 289 289 289 292 293 292 291 292 296 300 302 302 302 302 302 303 303 303 304 305 306 306 305 305 306 307 309 310 308 309 316 320 319 317 317 316 315 314 314 313 314 314 314 313 312 311 311 310 310 311
145 146 149 152 152 151 149 145 137 134 136 140 146 154 151 136 129 145 160 184 231 249 270 290 301 297 291 300 309 310 292 276 279 281 283 286 287 288 291 293 293 292 292 294 297 300 300 300 299 298 297 297 298 299 299 300 299 297 296 298 300 302 303 303 306 312 313 312 312 313 313 312 313 312 312 313 313 312 311 310 310 309 309 309 309
135 139 142 141 138 134 132 131 132 133 135 135 140 147 139 122 116 132 249 255 266 276 287 298 306 308 300 307 316 319 305 290 286 285 284 285 285 286 287 287 287 286 287 291 297 299 300 300 299 298 297 296 295 294 293 294 294 292 290 292 294 295 297 300 303 305 306 307 307 308 308 309 310 310 310 311 310 309 308 308 308 308 308 307 307
129 133 135 132 130 127 128 130 130 126 125 131 138 141 134 120 123 138 188 235 277 313 312 300 302 307 307 308 310 308 300 293 292 292 291 289 289 287 284 279 276 275 280 292 300 299 298 298 297 296 297 296 293 293 292 290 288 285 285 286 288 289 293 296 297 297 299 301 302 303 304 306 307 308 308 308 307 306 306 306 306 306 306 305 305
130 132 128 124 123 121 118 116 113 108 109 116 118 113 116 126 122 118 59 332 332 316 306 305 310 315 316 316 315 312 306 300 298 295 291 290 291 288 281 275 271 272 279 290 298 297 295 295 294 294 295 293 290 290 291 289 285 282 279 279 282 286 288 289 290 291 293 296 297 299 301 303 303 304 305 304 304 304 304 304 305 305 305 305 303
132 131 127 122 119 114 110 108 104 96 91 82 63 45 39 51 78 101 351 349 353 342 319 315 319 319 318 318 317 313 307 304 302 297 293 294 293 286 279 277 276 279 284 293 298 297 296 296 296 295 294 291 288 288 287 284 281 279 278 278 278 279 280 282 285 288 289 291 292 294 297 299 300 301 302 302 302 303 304 304 304 305 305 305 303
137 132 127 119 112 107 101 97 92 83 73 61 43 28 22 25 30 24 359 354 352 344 334 328 326 325 323 320 317 313 308 305 303 301 299 297 291 281 276 278 282 286 292 298 301 302 303 304 302 300 297 293 290 289 285 279 278 282 284 282 279 277 278 281 285 288 289 288 289 291 294 295 296 297 298 300 302 303 304 305 306 307 307 305 303
141 133 125 114 105 98 90 83 77 67 55 44 33 22 16 15 12 5 359 356 351 346 342 339 334 329 324 318 314 311 309 307 305 302 300 298 292 283 280 283 289 295 301 306 309 312 313 312 310 306 301 296 291 287 282 281 283 286 287 285 283 284 286 286 287 288 289 289 289 291 294 295 296 297 298 300 302 304 305 307 309 309 306 305 306
143 133 120 106 95 86 76 69 65 55 43 36 27 20 15 12 7 2 0 357 353 349 346 342 337 332 327 323 320 316 311 307 306 301 297 296 295 292 292 296 302 309 313 316 317 318 319 317 315 311 306 300 294 290 286 285 285 286 288 289 290 292 294 294 293 294 296 296 296 297 299 299 299 300 302 305 307 308 308 310 310 308 305 306 309
146 134 120 101 86 74 64 58 53 45 37 31 25 19 16 12 4 360 359 358 354 349 347 344 340 336 331 325 322 318 312 307 307 305 300 298 300 302 303 307 313 317 318 319 320 321 322 321 320 318 314 308 302 299 296 294 294 295 297 298 299 300 303 305 306 306 305 304 304 305 306 305 305 307 309 312 314 314 313 312 310 308 307 306 304